This is the latest recevied weather packets stored in our database for station/object K7NDG. If no packets are shown the sender has not sent any weather packets the latest 10 day(s).
| Time | Temp. | Humidity | Pressure | Rain* | Wind** | Luminosity | Snow |
|---|---|---|---|---|---|---|---|
| 1777947645 | 15° C | 75% | 1012.7 hPa | 0 mm | - | 16 W/m² | - |
| 1777947342 | 15° C | 75% | 1012.9 hPa | 0 mm | - | 20 W/m² | - |
| 1777947039 | 15° C | 75% | 1012.8 hPa | 0 mm | - | 23 W/m² | - |
| 1777946738 | 15.56° C | 74% | 1012.9 hPa | 0 mm | - | 24 W/m² | - |
| 1777946436 | 15.56° C | 74% | 1012.8 hPa | 0 mm | - | 28 W/m² | - |
| 1777946133 | 15.56° C | 73% | 1012.9 hPa | 0 mm | - | 32 W/m² | - |
| 1777945830 | 15.56° C | 73% | 1012.8 hPa | 0 mm | - | 38 W/m² | - |
| 1777945526 | 15.56° C | 73% | 1012.9 hPa | 0 mm | - | 40 W/m² | - |
| 1777945224 | 16.11° C | 72% | 1012.7 hPa | 0 mm | - | 48 W/m² | - |
| 1777944921 | 16.11° C | 72% | 1012.8 hPa | 0 mm | - | 55 W/m² | - |
| 1777944618 | 16.11° C | 72% | 1012.9 hPa | 0 mm | - | 62 W/m² | - |
| 1777944316 | 16.67° C | 71% | 1012.9 hPa | 0 mm | - | 78 W/m² | - |
| 1777944013 | 16.67° C | 71% | 1012.9 hPa | 0 mm | - | 72 W/m² | - |
| 1777943708 | 16.67° C | 70% | 1012.8 hPa | 0 mm | - | 98 W/m² | - |
| 1777943405 | 17.22° C | 69% | 1012.6 hPa | 0 mm | - | 105 W/m² | - |
| 1777943101 | 17.22° C | 69% | 1012.8 hPa | 0 mm | - | 98 W/m² | - |
| 1777942797 | 17.78° C | 69% | 1012.7 hPa | 0 mm | - | 111 W/m² | - |
| 1777942494 | 17.78° C | 69% | 1012.9 hPa | 0 mm | - | 120 W/m² | - |
| 1777942192 | 17.78° C | 69% | 1013 hPa | 0 mm | - | 116 W/m² | - |
| 1777941889 | 18.33° C | 68% | 1012.9 hPa | 0 mm | - | 122 W/m² | - |
| 1777941585 | 18.33° C | 68% | 1012.7 hPa | 0 mm | - | 117 W/m² | - |
| 1777941282 | 18.33° C | 68% | 1012.9 hPa | 0 mm | - | 146 W/m² | - |
| 1777940979 | 18.33° C | 68% | 1013.1 hPa | 0 mm | - | 137 W/m² | - |
| 1777940675 | 18.89° C | 67% | 1012.9 hPa | 0 mm | - | 131 W/m² | - |
| 1777940373 | 18.89° C | 67% | 1012.7 hPa | 0 mm | - | 356 W/m² | - |
* Rain latest hour (hover to see other rain measurements)
** Current wind speed in m/s (hover to see current wind gust speed)